Showing default

ELEVATION-1, 62677

Orbit data source: Space-Track

ELEVATION-1, 62677 is a UK payload satellite in SSO that was launched on Tue, 14 Jan 2025 UTC via an FALCON 9 launch vehicle from the Air Force Western Test Range (AFWTR). Payload-class satellites include a variety of spacecraft equipped with specific instruments for various scientific and technological missions. These include communications satellites like Starlink; space stations such as the ISS; scientific satellites like the Hubble; Earth observation satellites from companies like Planet Labs, Umbra, and HawkEye 360; GPS; miniature CubeSats for education and research; and military/defense satellites.

Loading next visibility...
Identifier
62677, 2025-009BW
Orbit
SSO
Country
Flag of UKUK
Related business
Manufacturer
XDLINX
Mission
Operational Commercial Communications
Bus & Motor
CUBESAT 6U, Unknown motor
Mass
~10 kg wet, ~10 kg dry
Launch date (UTC)
2025-01-14 (1 year ago)
Launch vehicle
FALCON 9
Launch site
Air Force Western Test Range (AFWTR)
Object type
Payload
Rocket body
Debris
Shape & HBR
Box + 2 Pan, 0.5 m
Radar Cross Section
0.080 m², Medium (>0.1 m² and < 1m²)

Expand to show TLE details & history
Last TLE update: 22 hours ago

TLE from 22 hours ago
0 ELEVATION-1
1 62677U 25009BW  26034.19509030  .00032349  00000-0  96550-3 0  9995
2 62677  97.3966 118.4456 0004893  79.8880 280.2915 15.34552171116226
Epoch: 2026-02-03T04:40Z
TLE epoch observation values (Epoch: 2026-02-03T04:40:55.801Z)
Latitude
-0.00003°
Longitude
-85.16641°
Altitude
464.765 km
Speed
7.634 km/s
True Right ascension
07h 53m 46s
True Declination
0° 00' 00"
Sunlit
Object was in full shadow at epoch
Visualization orbit readout
Latitude
Unknown
Longitude
Unknown
Altitude
Unknown
Speed
Unknown
Apparent Right ascension
Unknown
Apparent Declination
Unknown
Sunlit
N/A
Visualization observer readout
Local Sidereal Time
04:11:59
Azimuth
Unknown
Elevation
Unknown
Doppler factor
Unknown
Orbital elements
Apogee altitude
462.543 km
Perigee altitude
455.852 km
Semi-major axis
6,837.334 km
Eccentricity
0.00049
Inclination
97.3966°
RAAN
118.4456°
Arg. of periapsis
79.888°
True anomaly
280.23633°
Mean anomaly
280.2915°
Eccentric anomaly
280.26391°
Mean motion
3.83895 °/min
Orbital period
93.78 mins
BSTAR
0.0009655
Loading maneuver chart data...
Computing Atmospheric mass density...
Loading historical data...
Loading historical data...
Loading historical data...
Loading historical data...
Loading historical data...
Loading historical data...
Loading historical data...

Documentation

Showing up to 5 results
|